TimeHST,TemperatureF,Dew PointF,Humidity,Sea Level PressureIn,VisibilityMPH,Wind Direction,Wind SpeedMPH,Gust SpeedMPH,PrecipitationIn,Events,Conditions,WindDirDegrees,DateUTC
12:54 AM,77.0,73.9,90,29.94,10.0,NW,3.5,-,N/A,,Overcast,310,2012-10-24 10:54:00
1:54 AM,75.9,73.0,91,29.92,10.0,Calm,Calm,-,N/A,,Overcast,0,2012-10-24 11:54:00
2:54 AM,75.9,73.0,91,29.91,10.0,Calm,Calm,-,N/A,,Overcast,0,2012-10-24 12:54:00
3:54 AM,75.9,72.0,87,29.89,10.0,Calm,Calm,-,N/A,,Mostly Cloudy,0,2012-10-24 13:54:00
4:54 AM,75.0,73.0,94,29.89,10.0,West,4.6,-,N/A,,Partly Cloudy,270,2012-10-24 14:54:00
5:54 AM,75.0,73.0,94,29.90,10.0,West,3.5,-,N/A,,Clear,280,2012-10-24 15:54:00
6:54 AM,73.0,72.0,96,29.92,10.0,ESE,4.6,-,N/A,,Clear,120,2012-10-24 16:54:00
7:54 AM,78.1,73.9,87,29.94,10.0,Calm,Calm,-,N/A,,Partly Cloudy,0,2012-10-24 17:54:00
8:54 AM,80.1,73.9,81,29.94,10.0,Calm,Calm,-,N/A,,Partly Cloudy,0,2012-10-24 18:54:00
9:54 AM,84.0,73.9,72,29.93,10.0,North,5.8,-,N/A,,Scattered Clouds,350,2012-10-24 19:54:00
10:54 AM,86.0,73.0,65,29.91,10.0,NNW,8.1,-,N/A,,Partly Cloudy,330,2012-10-24 20:54:00
11:54 AM,88.0,73.0,61,29.88,10.0,NNW,9.2,-,N/A,,Partly Cloudy,340,2012-10-24 21:54:00
12:54 PM,88.0,73.0,61,29.87,10.0,North,10.4,17.3,N/A,,Partly Cloudy,10,2012-10-24 22:54:00
1:54 PM,86.0,73.0,65,29.85,10.0,North,9.2,-,N/A,,Partly Cloudy,360,2012-10-24 23:54:00
2:54 PM,84.0,73.0,69,29.85,10.0,NNE,8.1,-,N/A,,Mostly Cloudy,20,2012-10-25 00:54:00
3:54 PM,82.9,73.0,72,29.86,10.0,NNE,3.5,-,N/A,,Mostly Cloudy,30,2012-10-25 01:54:00
4:54 PM,82.0,73.9,76,29.87,10.0,NW,5.8,-,N/A,,Scattered Clouds,320,2012-10-25 02:54:00
5:54 PM,80.1,73.9,81,29.88,10.0,NNE,5.8,-,N/A,,Scattered Clouds,20,2012-10-25 03:54:00
6:54 PM,79.0,75.0,88,29.89,10.0,NNE,3.5,-,N/A,,Scattered Clouds,30,2012-10-25 04:54:00
7:54 PM,79.0,75.0,88,29.92,10.0,Calm,Calm,-,N/A,,Scattered Clouds,0,2012-10-25 05:54:00
8:54 PM,78.1,75.0,90,29.93,10.0,NW,4.6,-,N/A,,Clear,310,2012-10-25 06:54:00
9:54 PM,78.1,75.0,90,29.95,10.0,Calm,Calm,-,N/A,,Scattered Clouds,0,2012-10-25 07:54:00
10:54 PM,75.9,75.0,97,29.94,10.0,South,3.5,-,N/A,,Scattered Clouds,180,2012-10-25 08:54:00
11:54 PM,75.9,75.0,97,29.94,10.0,SSE,4.6,-,N/A,,Clear,150,2012-10-25 09:54:00